| time (UTC) | temp F | wind direction | speed MPH | gust MPH | rain 1hr in | rain 24hr in | rain mn in | humidity % | barometer mb |
| 20260508223520 | 60 | 297 | 2.0 | 4.0 | 0.00 | 0.00 | 0.00 | 76 | 1009.5 |
| 20260508223049 | 61 | 293 | 2.0 | 6.0 | 0.00 | 0.00 | 0.00 | 69 | 1009.4 |
| 20260508222520 | 62 | 286 | 2.0 | 6.0 | 0.00 | 0.00 | 0.00 | 68 | 1009.4 |
| 20260508222020 | 62 | 277 | 1.0 | 6.0 | 0.00 | 0.00 | 0.00 | 67 | 1009.2 |
| 20260508221539 | 62 | 261 | 2.0 | 6.0 | 0.00 | 0.00 | 0.00 | 66 | 1009.2 |
| 20260508221023 | 62 | 279 | 2.0 | 9.0 | 0.00 | 0.00 | 0.00 | 64 | 1009.3 |
| 20260508220520 | 62 | 257 | 1.0 | 10.0 | 0.00 | 0.00 | 0.00 | 62 | 1009.2 |
| 20260508220048 | 63 | 258 | 4.0 | 12.0 | 0.00 | 0.00 | 0.00 | 60 | 1009.3 |
| 20260508215519 | 63 | 252 | 5.0 | 12.0 | 0.00 | 0.00 | 0.00 | 60 | 1009.1 |
| 20260508215020 | 63 | 244 | 5.0 | 10.0 | 0.00 | 0.00 | 0.00 | 59 | 1009.0 |
| 20260508214535 | 63 | 208 | 2.0 | 10.0 | 0.00 | 0.00 | 0.00 | 60 | 1009.1 |
| 20260508214017 | 63 | 216 | 3.0 | 10.0 | 0.00 | 0.00 | 0.00 | 58 | 1009.0 |
| 20260508213520 | 64 | 240 | 1.0 | 4.0 | 0.00 | 0.00 | 0.00 | 59 | 1009.1 |
| 20260508213035 | 64 | 250 | 2.0 | 4.0 | 0.00 | 0.00 | 0.00 | 60 | 1009.1 |
| 20260508212520 | 64 | 232 | 1.0 | 4.0 | 0.00 | 0.00 | 0.00 | 62 | 1009.1 |
| 20260508212022 | 64 | 199 | 1.0 | 4.0 | 0.00 | 0.00 | 0.00 | 57 | 1009.1 |
| 20260508211534 | 64 | 237 | 1.0 | 4.0 | 0.00 | 0.00 | 0.00 | 56 | 1009.1 |
| 20260508211020 | 64 | 224 | 1.0 | 4.0 | 0.00 | 0.00 | 0.00 | 56 | 1009.2 |
| 20260508210520 | 64 | 240 | 0.0 | 4.0 | 0.00 | 0.00 | 0.00 | 56 | 1009.2 |
| 20260508210044 | 64 | 0 | 1.0 | 5.0 | 0.00 | 0.00 | 0.00 | 55 | 1009.2 |
| 20260508205520 | 64 | 223 | 1.0 | 6.0 | 0.00 | 0.00 | 0.00 | 55 | 1009.2 |
| 20260508205020 | 65 | 236 | 3.0 | 6.0 | 0.00 | 0.00 | 0.00 | 60 | 1009.3 |
| 20260508204541 | 65 | 255 | 2.0 | 5.0 | 0.00 | 0.00 | 0.00 | 56 | 1009.2 |
| 20260508204020 | 65 | 245 | 2.0 | 5.0 | 0.00 | 0.00 | 0.00 | 55 | 1009.2 |
| 20260508203520 | 65 | 241 | 2.0 | 5.0 | 0.00 | 0.00 | 0.00 | 54 | 1009.3 |
| 20260508203041 | 65 | 229 | 3.0 | 7.0 | 0.00 | 0.00 | 0.00 | 57 | 1009.4 |
| 20260508202521 | 65 | 232 | 2.0 | 7.0 | 0.00 | 0.00 | 0.00 | 56 | 1009.4 |
| 20260508202023 | 65 | 211 | 3.0 | 6.0 | 0.00 | 0.00 | 0.00 | 60 | 1009.6 |
| 20260508201536 | 65 | 229 | 2.0 | 7.0 | 0.00 | 0.00 | 0.00 | 56 | 1009.7 |
| 20260508201022 | 65 | 235 | 3.0 | 8.0 | 0.00 | 0.00 | 0.00 | 55 | 1009.8 |
| 20260508200519 | 65 | 228 | 2.0 | 8.0 | 0.00 | 0.00 | 0.00 | 54 | 1009.8 |
| 20260508200035 | 65 | 228 | 3.0 | 8.0 | 0.00 | 0.00 | 0.00 | 53 | 1009.8 |
| 20260508195520 | 65 | 257 | 2.0 | 6.0 | 0.00 | 0.00 | 0.00 | 54 | 1010.2 |
| 20260508195021 | 65 | 235 | 2.0 | 7.0 | 0.00 | 0.00 | 0.00 | 53 | 1010.3 |
| 20260508194541 | 65 | 239 | 3.0 | 10.0 | 0.00 | 0.00 | 0.00 | 53 | 1010.4 |
| 20260508194019 | 65 | 232 | 4.0 | 12.0 | 0.00 | 0.00 | 0.00 | 52 | 1010.3 |
| 20260508193519 | 65 | 221 | 4.0 | 12.0 | 0.00 | 0.00 | 0.00 | 50 | 1010.3 |
| 20260508193038 | 65 | 223 | 3.0 | 10.0 | 0.00 | 0.00 | 0.00 | 52 | 1010.5 |
| 20260508192520 | 65 | 173 | 4.0 | 10.0 | 0.00 | 0.00 | 0.00 | 52 | 1010.7 |
| 20260508192020 | 65 | 226 | 3.0 | 11.0 | 0.00 | 0.00 | 0.00 | 52 | 1010.7 |
| 20260508191543 | 65 | 228 | 5.0 | 11.0 | 0.00 | 0.00 | 0.00 | 51 | 1010.7 |
| 20260508191020 | 66 | 256 | 5.0 | 10.0 | 0.00 | 0.00 | 0.00 | 57 | 1010.8 |
| 20260508190520 | 66 | 239 | 4.0 | 10.0 | 0.00 | 0.00 | 0.00 | 53 | 1010.8 |
| 20260508190038 | 66 | 238 | 4.0 | 10.0 | 0.00 | 0.00 | 0.00 | 54 | 1010.9 |
| 20260508185520 | 65 | 219 | 4.0 | 10.0 | 0.00 | 0.00 | 0.00 | 53 | 1010.9 |
| 20260508185021 | 65 | 234 | 5.0 | 11.0 | 0.00 | 0.00 | 0.00 | 52 | 1011.1 |
| 20260508184535 | 65 | 229 | 5.0 | 11.0 | 0.00 | 0.00 | 0.00 | 52 | 1011.1 |
| 20260508184019 | 65 | 239 | 3.0 | 11.0 | 0.00 | 0.00 | 0.00 | 53 | 1011.1 |
| 20260508183519 | 65 | 253 | 5.0 | 12.0 | 0.00 | 0.00 | 0.00 | 60 | 1011.1 |
| 20260508183043 | 65 | 232 | 4.0 | 12.0 | 0.00 | 0.00 | 0.00 | 53 | 1011.1 |
| 20260508182520 | 64 | 242 | 3.0 | 10.0 | 0.00 | 0.00 | 0.00 | 53 | 1011.1 |
| 20260508182019 | 64 | 243 | 3.0 | 11.0 | 0.00 | 0.00 | 0.00 | 56 | 1011.2 |
| 20260508181539 | 64 | 242 | 4.0 | 11.0 | 0.00 | 0.00 | 0.00 | 51 | 1011.2 |
| 20260508181021 | 65 | 232 | 6.0 | 18.0 | 0.00 | 0.00 | 0.00 | 51 | 1011.2 |
| 20260508180522 | 65 | 229 | 6.0 | 19.0 | 0.00 | 0.00 | 0.00 | 52 | 1011.3 |
| 20260508180040 | 66 | 214 | 8.0 | 19.0 | 0.00 | 0.00 | 0.00 | 48 | 1011.4 |
| 20260508175520 | 66 | 246 | 6.0 | 15.0 | 0.00 | 0.00 | 0.00 | 52 | 1011.3 |
| 20260508175020 | 66 | 217 | 5.0 | 15.0 | 0.00 | 0.00 | 0.00 | 50 | 1011.2 |
| 20260508174541 | 67 | 205 | 5.0 | 15.0 | 0.00 | 0.00 | 0.00 | 51 | 1011.4 |
| 20260508174023 | 67 | 196 | 6.0 | 15.0 | 0.00 | 0.00 | 0.00 | 51 | 1011.5 |
| 20260508173520 | 66 | 246 | 4.0 | 18.0 | 0.00 | 0.00 | 0.00 | 55 | 1011.6 |
| 20260508173042 | 66 | 227 | 6.0 | 18.0 | 0.00 | 0.00 | 0.00 | 55 | 1011.6 |
| 20260508172521 | 66 | 182 | 8.0 | 17.0 | 0.00 | 0.00 | 0.00 | 56 | 1011.6 |
| 20260508172022 | 65 | 223 | 7.0 | 17.0 | 0.00 | 0.00 | 0.00 | 53 | 1011.8 |
| 20260508171540 | 64 | 215 | 6.0 | 15.0 | 0.00 | 0.00 | 0.00 | 53 | 1011.9 |
| 20260508171020 | 63 | 227 | 5.0 | 10.0 | 0.00 | 0.00 | 0.00 | 56 | 1012.2 |
| 20260508170519 | 63 | 195 | 5.0 | 17.0 | 0.00 | 0.00 | 0.00 | 55 | 1012.4 |
| 20260508170039 | 63 | 234 | 5.0 | 17.0 | 0.00 | 0.00 | 0.00 | 54 | 1012.3 |
| 20260508165519 | 63 | 239 | 5.0 | 13.0 | 0.00 | 0.00 | 0.00 | 54 | 1012.5 |
| 20260508165025 | 63 | 212 | 5.0 | 13.0 | 0.00 | 0.00 | 0.00 | 60 | 1012.5 |
| 20260508164538 | 62 | 234 | 5.0 | 13.0 | 0.00 | 0.00 | 0.00 | 55 | 1012.7 |
| 20260508164020 | 62 | 219 | 4.0 | 12.0 | 0.00 | 0.00 | 0.00 | 56 | 1012.8 |
| 20260508163519 | 62 | 248 | 5.0 | 12.0 | 0.00 | 0.00 | 0.00 | 55 | 1012.8 |
| 20260508163038 | 62 | 185 | 5.0 | 18.0 | 0.00 | 0.00 | 0.00 | 55 | 1012.8 |
| 20260508162519 | 62 | 218 | 4.0 | 18.0 | 0.00 | 0.00 | 0.00 | 56 | 1012.8 |
| 20260508162019 | 62 | 184 | 4.0 | 11.0 | 0.00 | 0.00 | 0.00 | 60 | 1012.9 |
| 20260508161534 | 62 | 180 | 4.0 | 11.0 | 0.00 | 0.00 | 0.00 | 56 | 1013.0 |
| 20260508161020 | 62 | 234 | 5.0 | 10.0 | 0.00 | 0.00 | 0.00 | 55 | 1013.1 |
| 20260508160521 | 62 | 236 | 4.0 | 12.0 | 0.00 | 0.00 | 0.00 | 56 | 1013.1 |
| 20260508160040 | 62 | 223 | 4.0 | 12.0 | 0.00 | 0.00 | 0.00 | 56 | 1013.2 |
| 20260508155523 | 62 | 229 | 5.0 | 14.0 | 0.00 | 0.00 | 0.00 | 55 | 1013.3 |
| 20260508155021 | 63 | 195 | 5.0 | 14.0 | 0.00 | 0.00 | 0.00 | 54 | 1013.3 |
| 20260508154550 | 63 | 257 | 4.0 | 11.0 | 0.00 | 0.00 | 0.00 | 53 | 1013.2 |
| 20260508154020 | 65 | 190 | 4.0 | 10.0 | 0.00 | 0.00 | 0.00 | 53 | 1013.3 |
| 20260508153524 | 65 | 198 | 4.0 | 10.0 | 0.00 | 0.00 | 0.00 | 53 | 1013.4 |
| 20260508153041 | 65 | 250 | 5.0 | 10.0 | 0.00 | 0.00 | 0.00 | 54 | 1013.3 |
| 20260508152520 | 65 | 204 | 4.0 | 11.0 | 0.00 | 0.00 | 0.00 | 57 | 1013.3 |
| 20260508152020 | 64 | 242 | 6.0 | 12.0 | 0.00 | 0.00 | 0.00 | 55 | 1013.3 |
| 20260508151538 | 64 | 219 | 6.0 | 13.0 | 0.00 | 0.00 | 0.00 | 56 | 1013.3 |
| 20260508151022 | 63 | 232 | 7.0 | 13.0 | 0.00 | 0.00 | 0.00 | 61 | 1013.3 |
| 20260508150520 | 63 | 220 | 6.0 | 13.0 | 0.00 | 0.00 | 0.00 | 55 | 1013.2 |
| 20260508150051 | 63 | 215 | 6.0 | 13.0 | 0.00 | 0.00 | 0.00 | 56 | 1013.3 |
| 20260508145519 | 63 | 242 | 9.0 | 13.0 | 0.00 | 0.00 | 0.00 | 57 | 1013.4 |
| 20260508145018 | 62 | 220 | 5.0 | 13.0 | 0.00 | 0.00 | 0.00 | 58 | 1013.4 |
| 20260508144535 | 62 | 252 | 6.0 | 13.0 | 0.00 | 0.00 | 0.00 | 55 | 1013.5 |
| 20260508144019 | 62 | 248 | 5.0 | 11.0 | 0.00 | 0.00 | 0.00 | 58 | 1013.7 |
| 20260508143524 | 61 | 184 | 4.0 | 11.0 | 0.00 | 0.00 | 0.00 | 61 | 1013.7 |
| 20260508143052 | 61 | 222 | 4.0 | 15.0 | 0.00 | 0.00 | 0.00 | 56 | 1013.6 |
| 20260508142520 | 60 | 244 | 6.0 | 15.0 | 0.00 | 0.00 | 0.00 | 58 | 1013.7 |
| 20260508142020 | 60 | 235 | 5.0 | 13.0 | 0.00 | 0.00 | 0.00 | 57 | 1013.7 |
| 20260508141539 | 60 | 240 | 6.0 | 14.0 | 0.00 | 0.00 | 0.00 | 59 | 1013.7 |
| 20260508141021 | 59 | 228 | 8.0 | 14.0 | 0.00 | 0.00 | 0.00 | 58 | 1013.7 |
| 20260508140519 | 59 | 234 | 5.0 | 12.0 | 0.00 | 0.00 | 0.00 | 59 | 1013.7 |
| 20260508140047 | 58 | 234 | 4.0 | 12.0 | 0.00 | 0.00 | 0.00 | 64 | 1013.7 |
| 20260508135518 | 58 | 222 | 5.0 | 13.0 | 0.00 | 0.00 | 0.00 | 59 | 1013.8 |
| 20260508135021 | 58 | 242 | 5.0 | 13.0 | 0.00 | 0.00 | 0.00 | 59 | 1013.8 |
| 20260508134540 | 57 | 215 | 3.0 | 12.0 | 0.00 | 0.00 | 0.00 | 60 | 1013.8 |
| 20260508134019 | 57 | 237 | 5.0 | 12.0 | 0.00 | 0.00 | 0.00 | 60 | 1013.8 |
| 20260508133520 | 56 | 217 | 4.0 | 12.0 | 0.00 | 0.00 | 0.00 | 60 | 1013.8 |
| 20260508133032 | 56 | 188 | 5.0 | 12.0 | 0.00 | 0.00 | 0.00 | 65 | 1013.8 |
| 20260508132519 | 55 | 227 | 5.0 | 12.0 | 0.00 | 0.00 | 0.00 | 66 | 1013.9 |
| 20260508132020 | 55 | 252 | 3.0 | 10.0 | 0.00 | 0.00 | 0.00 | 63 | 1013.9 |
| 20260508131539 | 54 | 228 | 4.0 | 11.0 | 0.00 | 0.00 | 0.00 | 61 | 1013.9 |
| 20260508131020 | 54 | 234 | 5.0 | 11.0 | 0.00 | 0.00 | 0.00 | 62 | 1013.9 |
| 20260508130519 | 53 | 178 | 3.0 | 10.0 | 0.00 | 0.00 | 0.00 | 64 | 1013.9 |
| 20260508130039 | 53 | 228 | 4.0 | 11.0 | 0.00 | 0.00 | 0.00 | 63 | 1014.0 |
| 20260508125519 | 53 | 253 | 4.0 | 16.0 | 0.00 | 0.00 | 0.00 | 64 | 1014.0 |
| 20260508125020 | 52 | 239 | 4.0 | 16.0 | 0.00 | 0.00 | 0.00 | 64 | 1014.0 |
| 20260508124538 | 52 | 222 | 5.0 | 16.0 | 0.00 | 0.00 | 0.00 | 64 | 1014.0 |
| 20260508124019 | 52 | 218 | 3.0 | 11.0 | 0.00 | 0.00 | 0.00 | 65 | 1013.9 |
| 20260508123519 | 51 | 217 | 6.0 | 11.0 | 0.00 | 0.00 | 0.00 | 64 | 1013.9 |
| 20260508123043 | 51 | 198 | 3.0 | 10.0 | 0.00 | 0.00 | 0.00 | 65 | 1013.9 |
| 20260508122520 | 51 | 240 | 3.0 | 13.0 | 0.00 | 0.00 | 0.00 | 65 | 1013.9 |
| 20260508122018 | 51 | 221 | 2.0 | 13.0 | 0.00 | 0.00 | 0.00 | 71 | 1013.8 |
| 20260508121542 | 50 | 207 | 3.0 | 10.0 | 0.00 | 0.00 | 0.00 | 66 | 1013.8 |
| 20260508121019 | 50 | 222 | 2.0 | 11.0 | 0.00 | 0.00 | 0.00 | 66 | 1013.8 |
| 20260508120519 | 50 | 194 | 3.0 | 11.0 | 0.00 | 0.00 | 0.00 | 65 | 1013.7 |
| 20260508120043 | 50 | 169 | 3.0 | 9.0 | 0.00 | 0.00 | 0.00 | 66 | 1013.7 |
| 20260508115520 | 49 | 181 | 3.0 | 10.0 | 0.00 | 0.00 | 0.00 | 65 | 1013.7 |
| 20260508115019 | 49 | 203 | 3.0 | 10.0 | 0.00 | 0.00 | 0.00 | 66 | 1013.7 |
| 20260508114540 | 49 | 217 | 3.0 | 9.0 | 0.00 | 0.00 | 0.00 | 66 | 1013.7 |
| 20260508114019 | 49 | 224 | 4.0 | 8.0 | 0.00 | 0.00 | 0.00 | 66 | 1013.7 |
| 20260508113519 | 48 | 219 | 4.0 | 9.0 | 0.00 | 0.00 | 0.00 | 66 | 1013.7 |
| 20260508113039 | 48 | 188 | 4.0 | 11.0 | 0.00 | 0.00 | 0.00 | 67 | 1013.6 |
| 20260508112519 | 48 | 185 | 3.0 | 11.0 | 0.00 | 0.00 | 0.00 | 67 | 1013.6 |
| 20260508112019 | 48 | 205 | 3.0 | 8.0 | 0.00 | 0.00 | 0.00 | 67 | 1013.7 |
| 20260508111535 | 48 | 211 | 3.0 | 8.0 | 0.00 | 0.00 | 0.00 | 67 | 1013.5 |
| 20260508111019 | 48 | 197 | 3.0 | 11.0 | 0.00 | 0.00 | 0.00 | 67 | 1013.5 |
| 20260508110520 | 48 | 192 | 3.0 | 11.0 | 0.00 | 0.00 | 0.00 | 67 | 1013.5 |
| 20260508110039 | 47 | 216 | 3.0 | 7.0 | 0.00 | 0.00 | 0.00 | 68 | 1013.5 |
| 20260508105520 | 47 | 192 | 2.0 | 7.0 | 0.00 | 0.00 | 0.00 | 68 | 1013.4 |
| 20260508105019 | 47 | 200 | 2.0 | 7.0 | 0.00 | 0.00 | 0.00 | 68 | 1013.4 |
| 20260508104541 | 48 | 189 | 2.0 | 7.0 | 0.00 | 0.00 | 0.00 | 68 | 1013.3 |
| 20260508104020 | 48 | 229 | 2.0 | 6.0 | 0.00 | 0.00 | 0.00 | 68 | 1013.4 |
| 20260508103518 | 48 | 173 | 2.0 | 6.0 | 0.00 | 0.00 | 0.00 | 68 | 1013.3 |
| 20260508103048 | 48 | 224 | 1.0 | 5.0 | 0.00 | 0.00 | 0.00 | 68 | 1013.2 |
| 20260508102520 | 48 | 0 | 1.0 | 6.0 | 0.00 | 0.00 | 0.00 | 68 | 1013.2 |
| 20260508102018 | 48 | 202 | 1.0 | 6.0 | 0.00 | 0.00 | 0.00 | 68 | 1013.2 |
| 20260508101544 | 48 | 209 | 2.0 | 5.0 | 0.00 | 0.00 | 0.00 | 67 | 1013.2 |
| 20260508101019 | 48 | 181 | 2.0 | 5.0 | 0.00 | 0.00 | 0.00 | 67 | 1013.2 |
| 20260508100519 | 48 | 211 | 1.0 | 6.0 | 0.00 | 0.00 | 0.00 | 67 | 1013.2 |
| 20260508100038 | 48 | 189 | 2.0 | 6.0 | 0.00 | 0.00 | 0.00 | 67 | 1013.2 |
| 20260508095520 | 48 | 194 | 3.0 | 6.0 | 0.00 | 0.00 | 0.00 | 68 | 1013.1 |
| 20260508095019 | 48 | 238 | 2.0 | 7.0 | 0.00 | 0.00 | 0.00 | 69 | 1013.1 |
| 20260508094542 | 48 | 184 | 3.0 | 7.0 | 0.00 | 0.00 | 0.00 | 69 | 1013.1 |
| 20260508094023 | 48 | 198 | 2.0 | 6.0 | 0.00 | 0.00 | 0.00 | 70 | 1013.2 |
| 20260508093521 | 48 | 183 | 2.0 | 8.0 | 0.00 | 0.00 | 0.00 | 71 | 1013.2 |
| 20260508093040 | 49 | 207 | 2.0 | 8.0 | 0.00 | 0.00 | 0.00 | 72 | 1013.3 |
| 20260508092519 | 49 | 214 | 2.0 | 5.0 | 0.00 | 0.00 | 0.00 | 71 | 1013.4 |
| 20260508092019 | 49 | 221 | 2.0 | 5.0 | 0.00 | 0.00 | 0.00 | 71 | 1013.5 |
| 20260508091543 | 49 | 0 | 1.0 | 4.0 | 0.00 | 0.00 | 0.00 | 71 | 1013.6 |
| 20260508091022 | 49 | 0 | 1.0 | 5.0 | 0.00 | 0.00 | 0.00 | 71 | 1013.6 |
| 20260508090520 | 49 | 248 | 2.0 | 5.0 | 0.00 | 0.00 | 0.00 | 71 | 1013.8 |
| 20260508090041 | 49 | 257 | 2.0 | 4.0 | 0.00 | 0.00 | 0.00 | 69 | 1013.7 |
| 20260508085519 | 49 | 250 | 1.0 | 4.0 | 0.00 | 0.00 | 0.00 | 69 | 1013.6 |
| 20260508085020 | 49 | 209 | 1.0 | 4.0 | 0.00 | 0.00 | 0.00 | 68 | 1013.6 |
| 20260508084538 | 49 | 215 | 1.0 | 4.0 | 0.00 | 0.00 | 0.00 | 68 | 1013.5 |
| 20260508084021 | 49 | 246 | 1.0 | 4.0 | 0.00 | 0.00 | 0.00 | 67 | 1013.5 |
| 20260508083519 | 49 | 202 | 1.0 | 4.0 | 0.00 | 0.00 | 0.00 | 67 | 1013.4 |
| 20260508083043 | 49 | 215 | 1.0 | 4.0 | 0.00 | 0.00 | 0.00 | 67 | 1013.4 |
| 20260508082519 | 49 | 251 | 1.0 | 5.0 | 0.00 | 0.00 | 0.00 | 67 | 1013.4 |
| 20260508082020 | 49 | 245 | 2.0 | 5.0 | 0.00 | 0.00 | 0.00 | 67 | 1013.4 |
| 20260508081538 | 49 | 229 | 2.0 | 5.0 | 0.00 | 0.00 | 0.00 | 67 | 1013.3 |
| 20260508081017 | 49 | 236 | 2.0 | 4.0 | 0.00 | 0.00 | 0.00 | 66 | 1013.3 |
| 20260508080520 | 49 | 250 | 2.0 | 7.0 | 0.00 | 0.00 | 0.00 | 67 | 1013.4 |
| 20260508080052 | 49 | 242 | 2.0 | 7.0 | 0.00 | 0.00 | 0.00 | 66 | 1013.4 |
| 20260508075520 | 49 | 234 | 2.0 | 7.0 | 0.00 | 0.00 | 0.00 | 66 | 1013.3 |
| 20260508075020 | 49 | 231 | 1.0 | 7.0 | 0.00 | 0.00 | 0.00 | 66 | 1013.3 |
| 20260508074541 | 49 | 240 | 1.0 | 7.0 | 0.00 | 0.00 | 0.00 | 66 | 1013.2 |
| 20260508074020 | 49 | 209 | 2.0 | 6.0 | 0.00 | 0.00 | 0.00 | 65 | 1013.3 |
| 20260508073520 | 50 | 207 | 3.0 | 5.0 | 0.00 | 0.00 | 0.00 | 65 | 1013.4 |
| 20260508073049 | 49 | 229 | 2.0 | 5.0 | 0.00 | 0.00 | 0.00 | 65 | 1013.3 |
| 20260508072520 | 49 | 233 | 1.0 | 6.0 | 0.00 | 0.00 | 0.00 | 65 | 1013.3 |
| 20260508072020 | 49 | 251 | 2.0 | 6.0 | 0.00 | 0.00 | 0.00 | 64 | 1013.4 |
| 20260508071533 | 49 | 205 | 2.0 | 4.0 | 0.00 | 0.00 | 0.00 | 64 | 1013.4 |
| 20260508071018 | 49 | 217 | 2.0 | 4.0 | 0.00 | 0.00 | 0.00 | 70 | 1013.4 |
| 20260508070520 | 49 | 211 | 1.0 | 7.0 | 0.00 | 0.00 | 0.00 | 64 | 1013.4 |
| 20260508070043 | 49 | 225 | 2.0 | 7.0 | 0.00 | 0.00 | 0.00 | 64 | 1013.3 |
| 20260508065519 | 49 | 174 | 2.0 | 6.0 | 0.00 | 0.00 | 0.00 | 64 | 1013.4 |
| 20260508065021 | 49 | 205 | 1.0 | 7.0 | 0.00 | 0.00 | 0.00 | 64 | 1013.5 |
| 20260508064545 | 49 | 207 | 2.0 | 7.0 | 0.00 | 0.00 | 0.00 | 64 | 1013.5 |
| 20260508064018 | 49 | 247 | 2.0 | 8.0 | 0.00 | 0.00 | 0.00 | 64 | 1013.6 |
| 20260508063520 | 49 | 0 | 2.0 | 8.0 | 0.00 | 0.00 | 0.00 | 64 | 1013.7 |
| 20260508063037 | 49 | 207 | 3.0 | 8.0 | 0.00 | 0.00 | 0.00 | 64 | 1013.7 |
| 20260508062523 | 49 | 217 | 2.0 | 7.0 | 0.00 | 0.00 | 0.00 | 64 | 1013.8 |
| 20260508062020 | 49 | 212 | 2.0 | 6.0 | 0.00 | 0.00 | 0.00 | 64 | 1013.8 |
| 20260508061537 | 49 | 265 | 2.0 | 7.0 | 0.00 | 0.00 | 0.00 | 64 | 1013.8 |
| 20260508061019 | 49 | 230 | 2.0 | 9.0 | 0.00 | 0.00 | 0.00 | 63 | 1013.8 |
| 20260508060521 | 49 | 211 | 3.0 | 9.0 | 0.00 | 0.00 | 0.00 | 63 | 1013.8 |
| 20260508060035 | 49 | 211 | 1.0 | 6.0 | 0.00 | 0.00 | 0.00 | 64 | 1013.9 |
| 20260508055518 | 49 | 0 | 2.0 | 6.0 | 0.00 | 0.00 | 0.00 | 64 | 1013.9 |
| 20260508055020 | 49 | 242 | 2.0 | 6.0 | 0.00 | 0.00 | 0.00 | 64 | 1013.9 |
| 20260508054546 | 49 | 223 | 1.0 | 6.0 | 0.00 | 0.00 | 0.00 | 64 | 1014.0 |
| 20260508054018 | 49 | 251 | 2.0 | 6.0 | 0.00 | 0.00 | 0.00 | 63 | 1013.9 |
| 20260508053517 | 50 | 218 | 1.0 | 5.0 | 0.00 | 0.00 | 0.00 | 63 | 1013.9 |
| 20260508053050 | 50 | 182 | 3.0 | 5.0 | 0.00 | 0.00 | 0.00 | 63 | 1013.8 |
| 20260508052521 | 50 | 226 | 2.0 | 5.0 | 0.00 | 0.00 | 0.00 | 63 | 1013.9 |
| 20260508052019 | 50 | 227 | 1.0 | 6.0 | 0.00 | 0.00 | 0.00 | 63 | 1013.9 |
| 20260508051537 | 50 | 0 | 2.0 | 6.0 | 0.00 | 0.00 | 0.00 | 63 | 1014.0 |
| 20260508051020 | 50 | 211 | 3.0 | 6.0 | 0.00 | 0.00 | 0.00 | 62 | 1014.0 |
| 20260508050520 | 50 | 217 | 2.0 | 6.0 | 0.00 | 0.00 | 0.00 | 63 | 1014.1 |
| 20260508050051 | 50 | 247 | 2.0 | 7.0 | 0.00 | 0.00 | 0.00 | 63 | 1014.0 |
| 20260508045519 | 50 | 228 | 1.0 | 7.0 | 0.00 | 0.00 | 0.00 | 63 | 1014.0 |
| 20260508045020 | 50 | 238 | 2.0 | 5.0 | 0.00 | 0.00 | 0.00 | 63 | 1014.0 |
| 20260508044542 | 50 | 234 | 2.0 | 9.0 | 0.00 | 0.00 | 0.00 | 63 | 1014.0 |
| 20260508044021 | 50 | 194 | 2.0 | 9.0 | 0.00 | 0.00 | 0.00 | 63 | 1013.9 |
| 20260508043517 | 50 | 188 | 3.0 | 9.0 | 0.00 | 0.00 | 0.00 | 63 | 1013.9 |
| 20260508043040 | 50 | 211 | 2.0 | 7.0 | 0.00 | 0.00 | 0.00 | 63 | 1013.9 |
| 20260508042518 | 50 | 213 | 2.0 | 6.0 | 0.00 | 0.00 | 0.00 | 63 | 1013.9 |
| 20260508042020 | 50 | 202 | 1.0 | 5.0 | 0.00 | 0.00 | 0.00 | 64 | 1014.0 |
| 20260508041539 | 50 | 231 | 1.0 | 5.0 | 0.00 | 0.00 | 0.00 | 63 | 1014.0 |
| 20260508041021 | 50 | 211 | 2.0 | 5.0 | 0.00 | 0.00 | 0.00 | 63 | 1013.9 |
| 20260508040520 | 50 | 225 | 1.0 | 5.0 | 0.00 | 0.00 | 0.00 | 63 | 1013.9 |
| 20260508040050 | 50 | 203 | 1.0 | 4.0 | 0.00 | 0.00 | 0.00 | 63 | 1013.9 |
| 20260508035520 | 50 | 226 | 1.0 | 4.0 | 0.00 | 0.00 | 0.00 | 63 | 1013.9 |
| 20260508035023 | 50 | 239 | 1.0 | 5.0 | 0.00 | 0.00 | 0.00 | 63 | 1013.9 |
| 20260508034543 | 50 | 236 | 1.0 | 5.0 | 0.00 | 0.00 | 0.00 | 63 | 1013.9 |
| 20260508034020 | 50 | 236 | 2.0 | 6.0 | 0.00 | 0.00 | 0.00 | 63 | 1013.8 |
| 20260508033519 | 50 | 232 | 2.0 | 6.0 | 0.00 | 0.00 | 0.00 | 63 | 1013.8 |
| 20260508033034 | 50 | 194 | 2.0 | 5.0 | 0.00 | 0.00 | 0.00 | 63 | 1013.8 |
| 20260508032521 | 51 | 225 | 1.0 | 4.0 | 0.00 | 0.00 | 0.00 | 63 | 1013.8 |
| 20260508032023 | 51 | 226 | 1.0 | 3.0 | 0.00 | 0.00 | 0.00 | 62 | 1013.8 |
| 20260508031533 | 51 | 212 | 1.0 | 4.0 | 0.00 | 0.00 | 0.00 | 63 | 1013.8 |
| 20260508031023 | 51 | 222 | 1.0 | 4.0 | 0.00 | 0.00 | 0.00 | 63 | 1013.9 |
| 20260508030520 | 51 | 217 | 1.0 | 4.0 | 0.00 | 0.00 | 0.00 | 62 | 1013.9 |
| 20260508030039 | 51 | 215 | 0.0 | 4.0 | 0.00 | 0.00 | 0.00 | 61 | 1013.9 |
| 20260508025519 | 52 | 217 | 1.0 | 3.0 | 0.00 | 0.00 | 0.00 | 61 | 1013.9 |
| 20260508025020 | 52 | 0 | 0.0 | 3.0 | 0.00 | 0.00 | 0.00 | 61 | 1013.9 |
| 20260508024539 | 52 | 242 | 0.0 | 3.0 | 0.00 | 0.00 | 0.00 | 61 | 1013.9 |
| 20260508024020 | 52 | 242 | 1.0 | 3.0 | 0.00 | 0.00 | 0.00 | 60 | 1013.8 |
| 20260508023520 | 52 | 273 | 0.0 | 3.0 | 0.00 | 0.00 | 0.00 | 61 | 1013.8 |
| 20260508023039 | 52 | 273 | 1.0 | 3.0 | 0.00 | 0.00 | 0.00 | 61 | 1013.9 |
| 20260508022519 | 52 | 274 | 0.0 | 3.0 | 0.00 | 0.00 | 0.00 | 62 | 1013.8 |
| 20260508022019 | 52 | 0 | 0.0 | 3.0 | 0.00 | 0.00 | 0.00 | 62 | 1013.8 |
| 20260508021536 | 52 | 0 | 1.0 | 3.0 | 0.00 | 0.00 | 0.00 | 63 | 1013.8 |
| 20260508021020 | 52 | 267 | 1.0 | 3.0 | 0.00 | 0.00 | 0.00 | 59 | 1013.9 |
| 20260508020521 | 52 | 221 | 1.0 | 3.0 | 0.00 | 0.00 | 0.00 | 59 | 1013.7 |
| 20260508020040 | 53 | 0 | 0.0 | 3.0 | 0.00 | 0.00 | 0.00 | 58 | 1013.7 |
| 20260508015520 | 53 | 0 | 0.0 | 0.0 | 0.00 | 0.00 | 0.00 | 57 | 1013.8 |
| 20260508015020 | 53 | 0 | 0.0 | 0.0 | 0.00 | 0.00 | 0.00 | 59 | 1013.6 |
| 20260508014539 | 54 | 0 | 0.0 | 2.0 | 0.00 | 0.00 | 0.00 | 59 | 1013.6 |
| 20260508014020 | 54 | 0 | 0.0 | 3.0 | 0.00 | 0.00 | 0.00 | 58 | 1013.7 |
| 20260508013519 | 55 | 259 | 1.0 | 3.0 | 0.00 | 0.00 | 0.00 | 59 | 1013.7 |
| 20260508013038 | 55 | 0 | 0.0 | 1.0 | 0.00 | 0.00 | 0.00 | 64 | 1013.7 |
| 20260508012519 | 55 | 0 | 0.0 | 1.0 | 0.00 | 0.00 | 0.00 | 59 | 1013.7 |
| 20260508012019 | 55 | 0 | 0.0 | 2.0 | 0.00 | 0.00 | 0.00 | 57 | 1013.7 |
| 20260508011539 | 55 | 0 | 0.0 | 2.0 | 0.00 | 0.00 | 0.00 | 58 | 1013.7 |
| 20260508011019 | 55 | 0 | 0.0 | 3.0 | 0.00 | 0.00 | 0.00 | 57 | 1013.7 |
| 20260508010520 | 55 | 0 | 0.0 | 3.0 | 0.00 | 0.00 | 0.00 | 56 | 1013.5 |
| 20260508010034 | 56 | 261 | 1.0 | 3.0 | 0.00 | 0.00 | 0.00 | 56 | 1013.5 |
| 20260508005520 | 56 | 0 | 0.0 | 3.0 | 0.00 | 0.00 | 0.00 | 61 | 1013.3 |
| 20260508005020 | 56 | 0 | 0.0 | 6.0 | 0.00 | 0.00 | 0.00 | 53 | 1013.4 |
| 20260508004547 | 56 | 279 | 1.0 | 6.0 | 0.00 | 0.00 | 0.00 | 54 | 1013.5 |
| 20260508004023 | 56 | 277 | 2.0 | 7.0 | 0.00 | 0.00 | 0.00 | 52 | 1013.6 |
| 20260508003523 | 56 | 279 | 2.0 | 9.0 | 0.00 | 0.00 | 0.00 | 54 | 1013.6 |
| 20260508003036 | 56 | 248 | 3.0 | 11.0 | 0.00 | 0.00 | 0.00 | 53 | 1013.6 |
| 20260508002520 | 57 | 302 | 5.0 | 11.0 | 0.00 | 0.00 | 0.00 | 49 | 1013.6 |
| 20260508002019 | 57 | 317 | 4.0 | 8.0 | 0.00 | 0.00 | 0.00 | 53 | 1013.6 |
| 20260508001535 | 57 | 267 | 2.0 | 6.0 | 0.00 | 0.00 | 0.00 | 53 | 1013.7 |
| 20260508001019 | 57 | 281 | 1.0 | 5.0 | 0.00 | 0.00 | 0.00 | 52 | 1013.7 |
| 20260508000522 | 57 | 259 | 3.0 | 5.0 | 0.00 | 0.00 | 0.00 | 49 | 1013.7 |
| 20260508000034 | 57 | 247 | 2.0 | 5.0 | 0.00 | 0.00 | 0.00 | 50 | 1013.6 |
| 20260507235519 | 57 | 250 | 2.0 | 5.0 | 0.00 | 0.00 | 0.00 | 50 | 1013.6 |
| 20260507235019 | 58 | 279 | 2.0 | 8.0 | 0.00 | 0.00 | 0.00 | 50 | 1013.5 |
| 20260507234545 | 58 | 264 | 3.0 | 8.0 | 0.00 | 0.00 | 0.00 | 51 | 1013.5 |
| 20260507234020 | 58 | 255 | 4.0 | 8.0 | 0.00 | 0.00 | 0.00 | 48 | 1013.4 |
| 20260507233518 | 58 | 261 | 3.0 | 7.0 | 0.00 | 0.00 | 0.00 | 48 | 1013.3 |
| 20260507233053 | 58 | 247 | 2.0 | 5.0 | 0.00 | 0.00 | 0.00 | 47 | 1013.3 |
| 20260507232522 | 58 | 238 | 2.0 | 5.0 | 0.00 | 0.00 | 0.00 | 43 | 1013.2 |
| 20260507232017 | 59 | 240 | 1.0 | 6.0 | 0.00 | 0.00 | 0.00 | 42 | 1013.3 |
| 20260507231539 | 59 | 217 | 2.0 | 6.0 | 0.00 | 0.00 | 0.00 | 46 | 1013.3 |
| 20260507231020 | 59 | 201 | 2.0 | 7.0 | 0.00 | 0.00 | 0.00 | 43 | 1013.2 |
| 20260507230520 | 59 | 243 | 1.0 | 7.0 | 0.00 | 0.00 | 0.00 | 42 | 1013.2 |
| 20260507230043 | 60 | 253 | 4.0 | 7.0 | 0.00 | 0.00 | 0.00 | 43 | 1013.2 |
| 20260507225520 | 60 | 254 | 3.0 | 7.0 | 0.00 | 0.00 | 0.00 | 44 | 1013.4 |
| 20260507225020 | 60 | 244 | 3.0 | 8.0 | 0.00 | 0.00 | 0.00 | 42 | 1013.5 |
| 20260507224539 | 60 | 215 | 2.0 | 8.0 | 0.00 | 0.00 | 0.00 | 40 | 1013.5 |
| 20260507224018 | 60 | 228 | 1.0 | 7.0 | 0.00 | 0.00 | 0.00 | 48 | 1013.6 |